Long Beach, CA

4:03 AM PST on January 19, 2018 (GMT -0800)
Long Beach

Weather History for KLGB - August, 2013

Change the Weather History Date:

Wednesday, August 28, 2013

  Actual Average Record
Temperature  
Mean Temperature 80 °F 74 °F  
Max Temperature 93 °F 84 °F 96 °F (1981)
Min Temperature 67 °F 65 °F 57 °F (1975)
Degree Days  
Heating Degree Days 0 0  
Month to date heating degree days 0 0  
Since 1 June heating degree days 0 6  
Since 1 July heating degree days 0 0  
Cooling Degree Days 15 9  
Month to date cooling degree days 203 252  
Year to date cooling degree days 756 730  
Since 1 June cooling degree days 607 627  
Growing Degree Days 30 (Base 50)    
Moisture  
Dew Point 56 °F    
Average Humidity 53    
Maximum Humidity 78    
Minimum Humidity 27    
Precipitation  
Precipitation 0.00 in 0.00 in 0.00 in (2018)
Month to date precipitation 0.00 0.03  
Year to date precipitation 2.94 8.50  
Since 1 July precipitation 0.07  
Sea Level Pressure  
Sea Level Pressure 29.83 in    
Wind  
Wind Speed 5 mph (WNW)    
Max Wind Speed 16 mph    
Max Gust Speed 18 mph    
Visibility 10 miles    
Events      
T = Trace of Precipitation, MM = Missing Value Source: NWS Daily Summary

Daily Weather History Graph

Daily Weather History Graph

Search for Another Location

Airport or City:

Trip Planner

Search our weather history database for the weather conditions in past years. The results will help you decide how hot, cold, wet, or windy it might be!

Date:

Astronomy

Aug. 28, 2013 Rise Set
Actual Time 6:23 AM PDT 7:22 PM PDT
Civil Twilight 5:58 AM PDT 7:48 PM PDT
Nautical Twilight 5:27 AM PDT 8:18 PM PDT
Astronomical Twilight 4:56 AM PDT 8:50 PM PDT
Moon No Moon Rise 1:56 PM PDT (8/28)
Length of Visible Light 13h 50m
Length of Day
12h 59m
Last Quarter, 46% of the Moon is Illuminated
Aug 28
Last Quarter
Sep 5
New
Sep 12
First Quarter
Sep 19
Full
Sep 26
Last Quarter

Hourly Weather History & Observations

Time (PDT) Temp. Heat Index Dew Point Humidity Pressure Visibility Wind Dir Wind Speed Gust Speed Precip Events Conditions
12:53 AM 69.1 °F - 57.9 °F 68% 29.80 in 10.0 mi NNW 4.6 mph - N/A   Clear
1:53 AM 69.1 °F - 57.9 °F 68% 29.79 in 10.0 mi NW 3.5 mph - N/A   Clear
2:53 AM 69.1 °F - 57.9 °F 68% 29.78 in 10.0 mi WNW 5.8 mph - N/A   Clear
3:53 AM 68.0 °F - 57.9 °F 70% 29.78 in 10.0 mi WNW 4.6 mph - N/A   Clear
4:53 AM 66.9 °F - 59.0 °F 76% 29.77 in 10.0 mi NW 3.5 mph - N/A   Clear
5:53 AM 66.9 °F - 59.0 °F 76% 29.79 in 10.0 mi NW 3.5 mph - N/A   Clear
6:53 AM 68.0 °F - 60.1 °F 76% 29.81 in 10.0 mi Calm Calm - N/A   Clear
7:53 AM 71.1 °F - 60.1 °F 68% 29.83 in 9.0 mi Calm Calm - N/A   Clear
8:53 AM 75.9 °F - 60.1 °F 58% 29.85 in 10.0 mi Calm Calm - N/A   Clear
9:53 AM 81.0 °F 81.3 °F 59.0 °F 47% 29.86 in 10.0 mi Calm Calm - N/A   Clear
10:53 AM 82.9 °F 82.8 °F 59.0 °F 44% 29.86 in 10.0 mi South 4.6 mph - N/A   Clear
11:53 AM 84.0 °F 83.0 °F 55.9 °F 38% 29.86 in 10.0 mi SSW 5.8 mph - N/A   Clear
12:53 PM 88.0 °F 86.7 °F 57.0 °F 35% 29.84 in 10.0 mi SSE 6.9 mph - N/A   Clear
1:53 PM 91.0 °F 88.9 °F 55.0 °F 29% 29.83 in 10.0 mi Variable 3.5 mph - N/A   Clear
2:53 PM 89.1 °F 87.7 °F 57.0 °F 34% 29.82 in 10.0 mi West 9.2 mph - N/A   Clear
3:53 PM 87.1 °F 85.3 °F 55.0 °F 33% 29.81 in 10.0 mi WNW 15.0 mph - N/A   Clear
4:53 PM 86.0 °F 84.0 °F 53.1 °F 32% 29.80 in 10.0 mi WNW 11.5 mph - N/A   Clear
5:53 PM 84.9 °F - 46.0 °F 26% 29.81 in 10.0 mi WNW 10.4 mph - N/A   Clear
6:53 PM 80.1 °F - 48.9 °F 34% 29.81 in 10.0 mi NW 6.9 mph - N/A   Clear
7:53 PM 75.9 °F - 54.0 °F 46% 29.83 in 10.0 mi NW 8.1 mph - N/A   Clear
8:53 PM 73.9 °F - 55.0 °F 52% 29.85 in 10.0 mi NW 5.8 mph - N/A   Clear
9:53 PM 73.9 °F - 55.0 °F 52% 29.88 in 10.0 mi NW 6.9 mph - N/A   Clear
10:53 PM 73.0 °F - 55.9 °F 55% 29.89 in 10.0 mi Calm Calm - N/A   Clear
11:53 PM 72.0 °F - 55.9 °F 57% 29.88 in 10.0 mi NW 4.6 mph - N/A   Clear